Tracking 30703 objects as of 13-Jun-2025
HD Live streaming from Space Station
objects crossing your sky now

STARLINK-5591

Track STARLINK-5591 now!
10-day predictions
STARLINK-5591 is classified as:


NORAD ID: 55771
Int'l Code: 2023-028AG
Perigee: 576.7 km
Apogee: 581.7 km
Inclination: 70.0 °
Period: 96.1 minutes
Semi major axis: 6950 km
RCS: Unknown
Launch date: March 3, 2023
Source: United States (US)
Launch site: AIR FORCE WESTERN TEST RANGE (AFWTR)
Your satellite tracking list
Your tracking list is empty




NASA's NSSDC Master Catalog

Two Line Element Set (TLE):
1 55771U 23028AG  25164.04667396  .00000547  00000-0  53626-4 0  9991
2 55771  69.9991 184.3002 0003635 274.5733  85.5011 14.98322966126140
Source of the keplerian elements: AFSPC